QPF
0.00 0.00 0.00 0.00 0.00 0.00 0.00 0.00 0.00 0.00 0.00 0.00 0.00 0.00 0.00 0.00 0.01 0.06 0.16 0.25 0.40 0.51 0.56 0.56 0.47 0.39 0.31 0.20 0.12 0.06 0.03 0.03 0.02 0.01 0.02 0.02 0.02 0.02 0.03 0.04 0.04 0.05 0.04 0.04
0.00 0.00 0.00 0.00 0.00 0.00 0.00 0.00 0.00 0.00 0.00 0.00 0.00 0.00 0.00 0.00 0.00 0.01 0.05 0.12 0.22 0.35 0.51 0.58 0.52 0.42 0.32 0.27 0.20 0.16 0.13 0.10 0.06 0.05 0.05 0.04 0.03 0.03 0.05 0.05 0.05 0.05 0.04 0.04
0.00 0.00 0.00 0.00 0.00 0.00 0.00 0.00 0.00 0.00 0.00 0.00 0.00 0.00 0.00 0.00 0.00 0.00 0.01 0.02 0.05 0.13 0.24 0.34 0.35 0.29 0.28 0.33 0.33 0.29 0.24 0.18 0.14 0.13 0.12 0.08 0.04 0.03 0.03 0.04 0.04 0.04 0.03 0.04
0.00 0.00 0.00 0.00 0.00 0.00 0.00 0.00 0.00 0.00 0.00 0.00 0.00 0.00 0.00 0.00 0.00 0.01 0.01 0.03 0.05 0.07 0.11 0.19 0.28 0.36 0.39 0.35 0.38 0.44 0.40 0.35 0.29 0.24 0.19 0.14 0.10 0.08 0.06 0.05 0.05 0.04 0.03 0.03
0.00 0.00 0.00 0.00 0.00 0.00 0.00 0.00 0.00 0.00 0.00 0.00 0.00 0.00 0.00 0.00 0.00 0.01 0.02 0.04 0.07 0.10 0.13 0.19 0.24 0.32 0.41 0.46 0.48 0.47 0.49 0.46 0.43 0.36 0.27 0.23 0.18 0.14 0.10 0.07 0.05 0.03 0.03 0.02
0.00 0.00 0.00 0.00 0.00 0.00 0.00 0.00 0.00 0.00 0.00 0.00 0.00 0.00 0.00 0.00 0.01 0.01 0.04 0.07 0.11 0.18 0.22 0.28 0.35 0.36 0.38 0.46 0.57 0.54 0.49 0.41 0.36 0.32 0.27 0.23 0.21 0.19 0.15 0.11 0.08 0.06 0.04 0.03
0.00 0.00 0.00 0.00 0.00 0.00 0.00 0.00 0.00 0.00 0.00 0.00 0.00 0.00 0.03 0.03 0.03 0.04 0.07 0.11 0.18 0.26 0.30 0.29 0.36 0.41 0.38 0.34 0.35 0.35 0.34 0.34 0.31 0.29 0.28 0.25 0.21 0.19 0.14 0.10 0.08 0.05 0.04 0.03
0.00 0.00 0.01 0.01 0.01 0.00 0.01 0.01 0.03 0.03 0.01 0.00 0.00 0.02 0.09 0.11 0.12 0.12 0.13 0.16 0.21 0.22 0.24 0.24 0.24 0.23 0.23 0.22 0.22 0.26 0.28 0.29 0.26 0.25 0.23 0.20 0.18 0.15 0.11 0.07 0.05 0.04 0.03 0.02
0.00 0.00 0.01 0.01 0.00 0.01 0.01 0.01 0.02 0.04 0.03 0.02 0.00 0.02 0.08 0.11 0.17 0.22 0.27 0.27 0.26 0.22 0.18 0.17 0.18 0.18 0.15 0.14 0.14 0.16 0.17 0.18 0.18 0.16 0.16 0.15 0.13 0.10 0.08 0.06 0.04 0.02 0.01 0.00
0.00 0.00 0.00 0.00 0.00 0.00 0.01 0.01 0.03 0.07 0.08 0.06 0.02 0.01 0.07 0.15 0.18 0.24 0.37 0.40 0.32 0.23 0.17 0.13 0.11 0.12 0.10 0.09 0.10 0.11 0.14 0.17 0.18 0.15 0.14 0.11 0.08 0.06 0.05 0.04 0.02 0.01 0.00 0.00
0.00 0.00 0.00 0.00 0.00 0.00 0.01 0.02 0.04 0.06 0.09 0.11 0.10 0.07 0.08 0.16 0.21 0.23 0.24 0.25 0.25 0.21 0.14 0.10 0.09 0.09 0.08 0.07 0.09 0.12 0.15 0.17 0.17 0.13 0.10 0.08 0.06 0.04 0.03 0.02 0.01 0.01 0.00 0.00
0.00 0.00 0.00 0.00 0.00 0.00 0.00 0.01 0.02 0.04 0.07 0.10 0.13 0.12 0.10 0.15 0.20 0.23 0.25 0.22 0.19 0.15 0.11 0.08 0.06 0.05 0.05 0.06 0.07 0.11 0.14 0.16 0.15 0.12 0.09 0.05 0.04 0.03 0.02 0.01 0.01 0.00 0.00 0.00
0.00 0.00 0.00 0.00 0.00 0.00 0.00 0.00 0.00 0.01 0.02 0.03 0.05 0.07 0.10 0.15 0.21 0.24 0.22 0.18 0.14 0.12 0.08 0.05 0.04 0.04 0.04 0.04 0.05 0.07 0.10 0.11 0.10 0.07 0.06 0.04 0.02 0.01 0.01 0.00 0.00 0.00 0.00 0.00
0.00 0.00 0.00 0.00 0.00 0.00 0.00 0.00 0.00 0.01 0.02 0.02 0.02 0.03 0.05 0.09 0.14 0.16 0.14 0.11 0.09 0.07 0.05 0.04 0.03 0.02 0.02 0.03 0.03 0.04 0.05 0.06 0.04 0.03 0.03 0.02 0.02 0.01 0.01 0.00 0.00 0.00 0.00 0.00
0.00 0.00 0.00 0.00 0.00 0.00 0.00 0.00 0.00 0.01 0.01 0.03 0.02 0.02 0.03 0.06 0.09 0.10 0.11 0.09 0.08 0.07 0.04 0.03 0.02 0.01 0.01 0.01 0.01 0.02 0.02 0.03 0.03 0.04 0.04 0.03 0.02 0.01 0.01 0.01 0.00 0.00 0.00 0.00
0.00 0.00 0.00 0.00 0.00 0.00 0.00 0.00 0.00 0.00 0.01 0.02 0.03 0.04 0.04 0.06 0.09 0.10 0.10 0.08 0.06 0.04 0.03 0.02 0.01 0.01 0.00 0.00 0.01 0.01 0.01 0.02 0.03 0.03 0.03 0.03 0.03 0.01 0.00 0.00 0.00 0.00 0.00 0.00
0.00 0.00 0.00 0.00 0.00 0.00 0.00 0.00 0.00 0.00 0.00 0.01 0.03 0.04 0.05 0.09 0.09 0.07 0.05 0.03 0.02 0.02 0.01 0.01 0.01 0.00 0.00 0.00 0.01 0.02 0.02 0.02 0.03 0.03 0.02 0.02 0.02 0.01 0.00 0.00 0.00 0.00 0.00 0.00
0.00 0.00 0.00 0.00 0.00 0.00 0.00 0.00 0.00 0.00 0.00 0.00 0.01 0.01 0.02 0.03 0.03 0.01 0.01 0.01 0.01 0.01 0.01 0.00 0.00 0.00 0.00 0.01 0.02 0.03 0.04 0.04 0.04 0.04 0.03 0.01 0.01 0.01 0.00 0.00 0.00 0.00 0.00 0.00
0.00 0.00 0.00 0.00 0.00 0.00 0.00 0.00 0.00 0.00 0.00 0.00 0.00 0.00 0.00 0.00 0.01 0.01 0.00 0.00 0.00 0.00 0.00 0.00 0.00 0.00 0.00 0.01 0.01 0.03 0.04 0.04 0.04 0.03 0.02 0.01 0.00 0.00 0.00 0.00 0.00 0.00 0.00 0.00
0.00 0.00 0.00 0.00 0.00 0.00 0.00 0.00 0.00 0.00 0.00 0.00 0.00 0.00 0.00 0.00 0.01 0.02 0.00 0.00 0.00 0.00 0.00 0.00 0.00 0.00 0.01 0.01 0.02 0.03 0.04 0.05 0.06 0.04 0.03 0.02 0.01 0.00 0.00 0.00 0.00 0.00 0.00 0.00
0.00 0.00 0.00 0.00 0.00 0.00 0.00 0.00 0.00 0.00 0.00 0.00 0.00 0.00 0.00 0.00 0.00 0.00 0.00 0.00 0.00 0.00 0.00 0.01 0.01 0.01 0.02 0.02 0.03 0.03 0.04 0.05 0.04 0.03 0.02 0.01 0.01 0.00 0.00 0.00 0.00 0.00 0.00 0.00
0.00 0.00 0.00 0.00 0.00 0.00 0.00 0.00 0.00 0.00 0.00 0.00 0.00 0.00 0.00 0.00 0.00 0.00 0.00 0.00 0.00 0.00 0.00 0.01 0.01 0.02 0.02 0.02 0.02 0.03 0.03 0.03 0.02 0.02 0.01 0.01 0.01 0.00 0.00 0.01 0.01 0.00 0.00 0.00
0.00 0.00 0.00 0.00 0.00 0.00 0.00 0.00 0.00 0.00 0.00 0.00 0.00 0.00 0.00 0.00 0.00 0.00 0.00 0.00 0.00 0.00 0.00 0.01 0.01 0.02 0.02 0.02 0.02 0.02 0.02 0.01 0.01 0.01 0.01 0.01 0.01 0.01 0.01 0.01 0.00 0.00 0.00 0.00
0.00 0.00 0.00 0.00 0.00 0.00 0.00 0.00 0.00 0.00 0.00 0.00 0.00 0.00 0.00 0.00 0.00 0.00 0.00 0.00 0.00 0.00 0.00 0.00 0.01 0.02 0.02 0.02 0.02 0.01 0.01 0.01 0.01 0.01 0.01 0.01 0.01 0.00 0.00 0.00 0.00 0.00 0.00 0.00
0.00 0.00 0.00 0.00 0.00 0.00 0.00 0.00 0.00 0.00 0.00 0.00 0.00 0.00 0.00 0.00 0.00 0.00 0.00 0.00 0.00 0.00 0.00 0.00 0.01 0.01 0.01 0.01 0.01 0.01 0.00 0.01 0.01 0.00 0.00 0.00 0.01 0.00 0.00 0.00 0.00 0.00 0.00 0.00
0.00 0.00 0.00 0.00 0.00 0.00 0.00 0.00 0.00 0.00 0.00 0.00 0.00 0.00 0.00 0.00 0.00 0.00 0.00 0.00 0.00 0.00 0.00 0.00 0.00 0.00 0.01 0.01 0.01 0.00 0.00 0.00 0.01 0.00 0.00 0.00 0.00 0.00 0.00 0.00 0.00 0.00 0.00 0.00
MSLP
1012.78 1013.44 1013.90 1014.17 1014.25 1014.17 1013.96 1013.66 1013.29 1012.85 1012.37 1011.84 1011.29 1010.73 1010.22 1009.78 1009.45 1009.24 1009.16 1009.20 1009.33 1009.51 1009.71 1009.90 1010.06 1010.20 1010.33 1010.48 1010.65 1010.88 1011.16 1011.47 1011.80 1012.12 1012.38 1012.57 1012.68 1012.72 1012.69 1012.65 1012.62 1012.63 1012.72 1012.88
1013.10 1013.62 1013.94 1014.09 1014.09 1013.98 1013.81 1013.59 1013.34 1013.03 1012.67 1012.24 1011.75 1011.23 1010.71 1010.24 1009.87 1009.63 1009.53 1009.55 1009.67 1009.83 1010.00 1010.13 1010.20 1010.23 1010.22 1010.23 1010.29 1010.42 1010.66 1010.98 1011.36 1011.75 1012.10 1012.39 1012.57 1012.65 1012.64 1012.59 1012.54 1012.53 1012.60 1012.76
1013.17 1013.51 1013.69 1013.73 1013.69 1013.61 1013.53 1013.45 1013.37 1013.25 1013.06 1012.77 1012.38 1011.91 1011.41 1010.93 1010.53 1010.26 1010.13 1010.14 1010.24 1010.38 1010.50 1010.56 1010.53 1010.43 1010.28 1010.14 1010.06 1010.09 1010.26 1010.57 1010.97 1011.42 1011.85 1012.21 1012.47 1012.60 1012.62 1012.58 1012.52 1012.50 1012.56 1012.71
1013.03 1013.19 1013.23 1013.20 1013.16 1013.16 1013.23 1013.36 1013.51 1013.62 1013.64 1013.52 1013.26 1012.86 1012.39 1011.90 1011.48 1011.17 1011.01 1010.98 1011.04 1011.14 1011.20 1011.18 1011.05 1010.82 1010.52 1010.23 1010.01 1009.92 1010.00 1010.26 1010.66 1011.14 1011.63 1012.06 1012.38 1012.57 1012.63 1012.61 1012.56 1012.53 1012.57 1012.71
1012.79 1012.79 1012.72 1012.65 1012.66 1012.80 1013.06 1013.44 1013.85 1014.22 1014.47 1014.53 1014.40 1014.08 1013.63 1013.13 1012.67 1012.31 1012.09 1012.00 1012.01 1012.05 1012.05 1011.94 1011.71 1011.35 1010.92 1010.47 1010.11 1009.89 1009.88 1010.07 1010.44 1010.93 1011.45 1011.93 1012.31 1012.55 1012.66 1012.67 1012.63 1012.60 1012.63 1012.74
1012.58 1012.43 1012.29 1012.24 1012.34 1012.64 1013.13 1013.75 1014.43 1015.05 1015.51 1015.75 1015.72 1015.46 1015.02 1014.49 1013.97 1013.54 1013.25 1013.09 1013.03 1013.00 1012.92 1012.74 1012.41 1011.95 1011.39 1010.82 1010.33 1009.99 1009.87 1009.99 1010.31 1010.77 1011.30 1011.82 1012.24 1012.54 1012.70 1012.75 1012.73 1012.71 1012.72 1012.80
1012.49 1012.26 1012.09 1012.08 1012.30 1012.77 1013.46 1014.32 1015.23 1016.06 1016.69 1017.04 1017.09 1016.85 1016.39 1015.81 1015.22 1014.70 1014.32 1014.08 1013.94 1013.84 1013.70 1013.44 1013.05 1012.50 1011.86 1011.20 1010.60 1010.17 1009.95 1009.99 1010.25 1010.68 1011.20 1011.73 1012.19 1012.53 1012.74 1012.83 1012.85 1012.83 1012.83 1012.88
1012.58 1012.32 1012.18 1012.24 1012.57 1013.19 1014.06 1015.09 1016.15 1017.10 1017.83 1018.24 1018.30 1018.04 1017.53 1016.88 1016.20 1015.60 1015.13 1014.81 1014.60 1014.44 1014.25 1013.95 1013.52 1012.94 1012.26 1011.54 1010.89 1010.38 1010.10 1010.06 1010.26 1010.64 1011.14 1011.67 1012.15 1012.53 1012.78 1012.92 1012.96 1012.97 1012.96 1012.98
1012.86 1012.63 1012.54 1012.69 1013.13 1013.86 1014.82 1015.93 1017.05 1018.03 1018.76 1019.15 1019.17 1018.85 1018.27 1017.55 1016.79 1016.11 1015.56 1015.17 1014.91 1014.71 1014.51 1014.21 1013.78 1013.21 1012.53 1011.82 1011.16 1010.62 1010.29 1010.20 1010.35 1010.69 1011.15 1011.66 1012.14 1012.54 1012.83 1013.00 1013.09 1013.11 1013.11 1013.10
1013.25 1013.10 1013.11 1013.35 1013.86 1014.63 1015.62 1016.71 1017.78 1018.70 1019.34 1019.64 1019.57 1019.17 1018.51 1017.72 1016.90 1016.17 1015.58 1015.16 1014.88 1014.68 1014.48 1014.21 1013.83 1013.32 1012.70 1012.04 1011.41 1010.89 1010.56 1010.44 1010.54 1010.82 1011.24 1011.71 1012.18 1012.59 1012.89 1013.10 1013.21 1013.26 1013.26 1013.25
1013.67 1013.65 1013.76 1014.07 1014.62 1015.37 1016.29 1017.28 1018.21 1018.97 1019.46 1019.62 1019.44 1018.95 1018.24 1017.41 1016.58 1015.84 1015.25 1014.84 1014.57 1014.40 1014.25 1014.04 1013.74 1013.32 1012.80 1012.23 1011.68 1011.21 1010.90 1010.77 1010.84 1011.07 1011.43 1011.86 1012.29 1012.68 1012.99 1013.21 1013.34 1013.41 1013.44 1013.43
1014.03 1014.14 1014.36 1014.73 1015.26 1015.95 1016.74 1017.55 1018.28 1018.84 1019.14 1019.14 1018.85 1018.29 1017.56 1016.74 1015.95 1015.26 1014.72 1014.36 1014.14 1014.02 1013.93 1013.81 1013.60 1013.29 1012.90 1012.44 1011.99 1011.60 1011.33 1011.21 1011.25 1011.44 1011.73 1012.09 1012.47 1012.82 1013.11 1013.33 1013.48 1013.58 1013.62 1013.64
1014.27 1014.51 1014.81 1015.20 1015.69 1016.27 1016.89 1017.49 1017.99 1018.33 1018.44 1018.30 1017.92 1017.35 1016.64 1015.90 1015.19 1014.60 1014.16 1013.88 1013.73 1013.68 1013.66 1013.61 1013.50 1013.30 1013.02 1012.69 1012.35 1012.05 1011.83 1011.73 1011.75 1011.88 1012.11 1012.40 1012.70 1013.00 1013.26 1013.47 1013.63 1013.75 1013.82 1013.86
1014.38 1014.71 1015.06 1015.44 1015.86 1016.30 1016.73 1017.11 1017.39 1017.52 1017.47 1017.23 1016.82 1016.28 1015.66 1015.04 1014.47 1014.02 1013.70 1013.52 1013.45 1013.46 1013.49 1013.51 1013.47 1013.37 1013.19 1012.97 1012.73 1012.52 1012.36 1012.28 1012.28 1012.37 1012.53 1012.74 1012.97 1013.20 1013.42 1013.61 1013.78 1013.91 1014.02 1014.10
1014.38 1014.76 1015.12 1015.46 1015.78 1016.07 1016.32 1016.49 1016.57 1016.53 1016.36 1016.07 1015.68 1015.22 1014.74 1014.28 1013.89 1013.60 1013.42 1013.34 1013.34 1013.39 1013.46 1013.51 1013.52 1013.48 1013.38 1013.25 1013.10 1012.96 1012.85 1012.79 1012.79 1012.84 1012.94 1013.08 1013.24 1013.41 1013.59 1013.76 1013.93 1014.08 1014.22 1014.34
1014.34 1014.71 1015.03 1015.29 1015.50 1015.64 1015.72 1015.71 1015.63 1015.47 1015.23 1014.94 1014.61 1014.28 1013.96 1013.69 1013.48 1013.36 1013.30 1013.31 1013.37 1013.44 1013.52 1013.57 1013.59 1013.57 1013.52 1013.45 1013.37 1013.29 1013.24 1013.21 1013.21 1013.24 1013.30 1013.38 1013.49 1013.61 1013.75 1013.91 1014.08 1014.26 1014.43 1014.59
1014.33 1014.63 1014.87 1015.02 1015.10 1015.10 1015.02 1014.87 1014.66 1014.42 1014.16 1013.90 1013.66 1013.46 1013.31 1013.23 1013.20 1013.23 1013.29 1013.37 1013.45 1013.53 1013.58 1013.61 1013.61 1013.59 1013.56 1013.53 1013.50 1013.48 1013.48 1013.49 1013.51 1013.54 1013.58 1013.63 1013.70 1013.80 1013.92 1014.07 1014.25 1014.45 1014.65 1014.84
1014.38 1014.58 1014.69 1014.72 1014.67 1014.52 1014.31 1014.04 1013.74 1013.45 1013.18 1012.96 1012.82 1012.75 1012.76 1012.83 1012.96 1013.11 1013.25 1013.38 1013.48 1013.54 1013.56 1013.54 1013.51 1013.48 1013.46 1013.45 1013.47 1013.50 1013.55 1013.61 1013.67 1013.72 1013.77 1013.82 1013.89 1013.98 1014.10 1014.26 1014.45 1014.67 1014.89 1015.10
1014.51 1014.57 1014.55 1014.44 1014.24 1013.97 1013.63 1013.27 1012.90 1012.56 1012.30 1012.12 1012.05 1012.09 1012.22 1012.42 1012.65 1012.89 1013.10 1013.27 1013.37 1013.41 1013.39 1013.35 1013.29 1013.24 1013.22 1013.24 1013.30 1013.39 1013.50 1013.61 1013.72 1013.82 1013.90 1013.98 1014.06 1014.17 1014.30 1014.48 1014.69 1014.92 1015.16 1015.39
1014.66 1014.58 1014.42 1014.17 1013.85 1013.45 1013.01 1012.56 1012.13 1011.76 1011.49 1011.34 1011.31 1011.42 1011.62 1011.90 1012.22 1012.52 1012.78 1012.97 1013.08 1013.11 1013.09 1013.02 1012.96 1012.91 1012.91 1012.95 1013.06 1013.20 1013.37 1013.54 1013.71 1013.86 1014.00 1014.12 1014.24 1014.38 1014.54 1014.74 1014.96 1015.21 1015.46 1015.68
1014.76 1014.54 1014.25 1013.87 1013.43 1012.94 1012.41 1011.89 1011.41 1011.01 1010.72 1010.57 1010.57 1010.70 1010.95 1011.27 1011.63 1011.98 1012.27 1012.49 1012.63 1012.68 1012.67 1012.62 1012.58 1012.55 1012.58 1012.67 1012.81 1013.00 1013.23 1013.47 1013.69 1013.90 1014.09 1014.27 1014.43 1014.61 1014.80 1015.02 1015.26 1015.52 1015.76 1015.99
1014.67 1014.34 1013.93 1013.46 1012.93 1012.36 1011.77 1011.20 1010.69 1010.26 1009.96 1009.80 1009.80 1009.93 1010.19 1010.53 1010.92 1011.29 1011.63 1011.89 1012.07 1012.17 1012.21 1012.22 1012.21 1012.24 1012.31 1012.44 1012.63 1012.87 1013.14 1013.42 1013.70 1013.96 1014.20 1014.42 1014.63 1014.84 1015.06 1015.30 1015.55 1015.81 1016.05 1016.27
1014.30 1013.87 1013.38 1012.84 1012.25 1011.64 1011.03 1010.44 1009.92 1009.48 1009.17 1009.00 1008.99 1009.12 1009.37 1009.72 1010.12 1010.53 1010.91 1011.23 1011.47 1011.65 1011.77 1011.85 1011.92 1012.01 1012.14 1012.31 1012.54 1012.81 1013.11 1013.42 1013.73 1014.02 1014.30 1014.55 1014.79 1015.03 1015.27 1015.53 1015.79 1016.04 1016.28 1016.50
1013.55 1013.06 1012.51 1011.93 1011.33 1010.71 1010.11 1009.55 1009.05 1008.63 1008.33 1008.17 1008.15 1008.28 1008.53 1008.88 1009.30 1009.74 1010.16 1010.55 1010.88 1011.15 1011.37 1011.54 1011.70 1011.86 1012.04 1012.26 1012.52 1012.81 1013.12 1013.44 1013.76 1014.07 1014.36 1014.63 1014.90 1015.15 1015.41 1015.67 1015.93 1016.19 1016.43 1016.63
1012.41 1011.87 1011.29 1010.71 1010.12 1009.55 1009.00 1008.50 1008.05 1007.69 1007.44 1007.30 1007.30 1007.44 1007.69 1008.05 1008.48 1008.96 1009.44 1009.90 1010.31 1010.68 1010.99 1011.26 1011.51 1011.74 1011.98 1012.23 1012.50 1012.80 1013.11 1013.42 1013.74 1014.05 1014.35 1014.63 1014.90 1015.17 1015.43 1015.70 1015.96 1016.21 1016.44 1016.65
1010.92 1010.34 1009.76 1009.20 1008.67 1008.17 1007.71 1007.30 1006.96 1006.69 1006.50 1006.43 1006.46 1006.62 1006.89 1007.26 1007.71 1008.21 1008.74 1009.26 1009.75 1010.20 1010.60 1010.95 1011.27 1011.57 1011.85 1012.13 1012.41 1012.70 1013.00 1013.31 1013.62 1013.92 1014.21 1014.50 1014.78 1015.05 1015.32 1015.59 1015.85 1016.10 1016.33 1016.54
Thickness
5758 5741 5729 5737 5744 5744 5745 5743 5744 5760 5784 5781 5776 5782 5799 5810 5808 5801 5797 5797 5797 5797 5801 5805 5805 5806 5804 5801 5798 5796 5792 5790 5788 5784 5779 5775 5774 5774 5774 5774 5774 5773 5770 5768
5734 5728 5744 5753 5754 5752 5749 5742 5744 5760 5779 5778 5772 5779 5796 5803 5803 5803 5797 5795 5794 5791 5793 5797 5799 5801 5798 5793 5790 5789 5785 5783 5782 5780 5776 5772 5770 5769 5769 5768 5767 5766 5764 5762
5724 5737 5757 5755 5749 5746 5746 5742 5743 5747 5763 5770 5765 5760 5776 5789 5796 5794 5793 5790 5788 5786 5785 5787 5790 5791 5789 5785 5783 5781 5777 5775 5774 5771 5767 5765 5763 5761 5759 5758 5758 5758 5757 5756
5732 5747 5749 5745 5744 5746 5731 5750 5751 5748 5737 5730 5745 5722 5754 5768 5770 5771 5770 5769 5769 5769 5770 5773 5775 5776 5776 5776 5777 5776 5772 5768 5764 5761 5758 5755 5752 5749 5751 5751 5751 5751 5750 5749
5720 5736 5736 5733 5740 5745 5739 5752 5747 5743 5730 5722 5730 5720 5731 5748 5746 5748 5751 5753 5753 5753 5755 5756 5759 5761 5762 5764 5765 5764 5762 5758 5756 5753 5752 5749 5746 5746 5746 5745 5744 5743 5742 5741
5728 5742 5742 5739 5747 5747 5744 5737 5729 5719 5707 5693 5713 5712 5710 5725 5731 5734 5735 5736 5737 5738 5739 5741 5745 5748 5750 5753 5753 5751 5748 5747 5747 5747 5747 5745 5741 5740 5738 5737 5735 5734 5733 5733
5713 5726 5738 5743 5730 5730 5724 5697 5676 5673 5667 5674 5704 5704 5702 5716 5720 5720 5718 5718 5719 5721 5724 5725 5727 5731 5736 5739 5742 5742 5740 5737 5738 5739 5739 5737 5736 5734 5732 5730 5729 5726 5724 5722
5694 5694 5721 5730 5722 5713 5711 5694 5665 5653 5652 5665 5690 5688 5695 5702 5703 5704 5704 5704 5705 5706 5708 5710 5712 5717 5723 5726 5729 5729 5729 5728 5729 5730 5730 5730 5729 5728 5725 5724 5721 5718 5715 5713
5694 5694 5722 5729 5729 5720 5702 5687 5684 5664 5659 5654 5666 5683 5685 5690 5688 5688 5688 5688 5688 5691 5693 5696 5699 5702 5710 5712 5715 5717 5718 5719 5720 5720 5719 5718 5718 5717 5715 5712 5710 5707 5705 5703
5708 5694 5707 5720 5719 5710 5699 5685 5665 5652 5640 5632 5646 5657 5658 5670 5672 5673 5673 5673 5674 5676 5678 5681 5685 5689 5697 5700 5702 5705 5706 5707 5707 5707 5706 5705 5704 5704 5702 5700 5697 5695 5694 5692
5708 5687 5690 5699 5695 5689 5684 5672 5657 5642 5639 5626 5620 5635 5665 5662 5663 5661 5662 5663 5664 5664 5664 5667 5670 5676 5681 5684 5687 5690 5690 5692 5693 5693 5693 5691 5690 5690 5689 5687 5685 5684 5683 5682
5702 5678 5670 5682 5697 5701 5687 5672 5655 5637 5629 5625 5613 5624 5661 5657 5654 5652 5651 5653 5653 5653 5653 5654 5658 5662 5666 5669 5672 5674 5676 5678 5679 5680 5679 5678 5678 5677 5676 5675 5674 5674 5672 5672
5699 5671 5653 5656 5667 5681 5678 5671 5660 5642 5627 5614 5606 5621 5650 5645 5643 5643 5642 5642 5642 5643 5642 5642 5646 5649 5651 5655 5659 5662 5663 5665 5667 5668 5667 5666 5665 5665 5664 5664 5664 5664 5662 5661
5700 5671 5656 5649 5653 5664 5666 5668 5659 5638 5621 5614 5618 5627 5637 5635 5632 5633 5633 5632 5631 5633 5633 5632 5634 5637 5640 5643 5646 5649 5651 5654 5656 5656 5656 5654 5654 5654 5654 5654 5653 5653 5652 5650
5691 5670 5670 5668 5672 5674 5671 5672 5666 5649 5639 5627 5630 5631 5634 5634 5632 5630 5627 5624 5624 5625 5626 5626 5626 5628 5630 5632 5635 5638 5640 5643 5645 5644 5644 5644 5644 5644 5644 5643 5642 5642 5641 5640
5681 5670 5670 5666 5673 5672 5670 5674 5672 5664 5655 5645 5640 5636 5642 5639 5633 5627 5623 5621 5620 5619 5621 5621 5621 5620 5621 5622 5624 5627 5629 5631 5633 5633 5633 5633 5633 5633 5632 5632 5631 5630 5629 5628
5671 5663 5653 5646 5659 5658 5654 5670 5671 5667 5665 5654 5639 5639 5641 5634 5629 5624 5621 5619 5617 5616 5616 5615 5614 5613 5613 5614 5615 5616 5618 5620 5621 5621 5622 5622 5622 5622 5621 5621 5619 5618 5617 5617
5666 5655 5642 5637 5641 5636 5655 5681 5681 5671 5667 5662 5653 5647 5641 5637 5632 5628 5623 5618 5616 5615 5613 5610 5608 5607 5606 5607 5608 5608 5609 5610 5611 5611 5611 5612 5612 5611 5610 5609 5607 5606 5606 5605
5673 5656 5637 5627 5626 5637 5661 5676 5676 5664 5658 5662 5654 5649 5644 5639 5630 5624 5625 5621 5617 5614 5611 5607 5605 5603 5601 5601 5601 5601 5601 5602 5602 5602 5603 5603 5603 5601 5600 5598 5597 5596 5596 5595
5667 5656 5638 5626 5621 5622 5648 5675 5681 5665 5646 5659 5656 5649 5643 5633 5616 5617 5626 5623 5618 5614 5610 5606 5603 5600 5597 5597 5596 5595 5594 5594 5595 5596 5596 5596 5595 5593 5591 5590 5589 5588 5588 5586
5646 5641 5633 5625 5619 5630 5661 5675 5671 5640 5636 5657 5657 5652 5644 5632 5630 5630 5629 5623 5618 5613 5609 5606 5601 5597 5595 5594 5592 5590 5589 5589 5591 5591 5590 5589 5588 5587 5585 5584 5583 5582 5580 5578
5640 5631 5628 5623 5615 5626 5665 5665 5652 5649 5657 5660 5658 5655 5648 5642 5638 5633 5629 5623 5618 5613 5610 5605 5599 5596 5594 5592 5590 5587 5586 5587 5587 5586 5584 5583 5582 5582 5581 5578 5577 5575 5573 5570
5647 5643 5636 5634 5635 5654 5663 5662 5664 5662 5657 5658 5656 5656 5651 5643 5638 5634 5628 5623 5619 5615 5610 5606 5600 5596 5593 5591 5589 5585 5585 5584 5583 5581 5580 5579 5578 5576 5574 5573 5570 5568 5565 5562
5652 5657 5645 5641 5647 5656 5660 5662 5663 5661 5660 5661 5659 5657 5651 5645 5640 5634 5629 5623 5619 5615 5611 5606 5600 5595 5592 5590 5588 5586 5584 5583 5580 5578 5576 5574 5572 5570 5569 5567 5565 5562 5559 5556
5649 5650 5642 5639 5647 5652 5658 5660 5661 5661 5661 5660 5659 5657 5653 5647 5641 5635 5629 5623 5619 5616 5612 5607 5601 5597 5593 5591 5588 5586 5584 5581 5578 5575 5573 5571 5568 5566 5563 5560 5558 5557 5554 5551
5655 5649 5640 5639 5648 5645 5650 5660 5663 5658 5656 5657 5655 5653 5651 5648 5642 5636 5630 5625 5619 5615 5611 5607 5602 5598 5594 5591 5588 5586 5584 5581 5576 5573 5570 5567 5564 5562 5559 5555 5552 5551 5549 5547